Mosinee, WI

12:48 PM CST on February 10, 2016 (GMT -0600)
Central Wisconsin

Weather History for KCWA - October, 2013

Change the Weather History Date:

Sunday, October 6, 2013

  Actual Average Record
Temperature  
Mean Temperature 50 °F -  
Max Temperature 57 °F 59 °F 80 °F (2007)
Min Temperature 42 °F 37 °F 24 °F (2001)
Degree Days  
Heating Degree Days 16    
Moisture  
Dew Point 45 °F    
Average Humidity 88    
Maximum Humidity 100    
Minimum Humidity 48    
Precipitation  
Precipitation 0.05 in - - ()
Sea Level Pressure  
Sea Level Pressure 29.71 in    
Wind  
Wind Speed 7 mph (West)    
Max Wind Speed 13 mph    
Max Gust Speed 18 mph    
Visibility 9 miles    
Events Fog    
Averages and records for this station are not official NWS values.
T = Trace of Precipitation, MM = Missing Value Source: NWS Daily Summary

Daily Weather History Graph

Daily Weather History Graph

Search for Another Location

Airport or City:

Trip Planner

Search our weather history database for the weather conditions in past years. The results will help you decide how hot, cold, wet, or windy it might be!

Date:

Astronomy

Oct. 06, 2013 Rise Set
Actual Time 7:03 AM CDT 6:29 PM CDT
Civil Twilight 6:33 AM CDT 6:58 PM CDT
Nautical Twilight 6:00 AM CDT 7:32 PM CDT
Astronomical Twilight 5:25 AM CDT 8:06 PM CDT
Moon 8:53 AM CDT (10/6) 7:22 PM CDT (10/6)
Length of Visible Light 12h 24m
Length of Day
11h 26m
Waxing Crescent, 3% of the Moon is Illuminated
Oct 6
Waxing Crescent
Oct 11
First Quarter
Oct 18
Full
Oct 26
Last Quarter
Nov 3
New

Hourly Weather History & Observations

Time (CDT) Temp. Windchill Dew Point Humidity Pressure Visibility Wind Dir Wind Speed Gust Speed Precip Events Conditions
12:15 AM 53.6 °F - 53.6 °F 100% 29.74 in 10.0 mi West 9.2 mph - N/A   Overcast
12:35 AM 53.6 °F - 53.6 °F 100% 29.74 in 10.0 mi WNW 9.2 mph - 0.01 in   Overcast
12:55 AM 53.6 °F - 53.6 °F 100% 29.73 in 10.0 mi WNW 5.8 mph - 0.01 in   Overcast
1:15 AM 51.8 °F - 51.8 °F 100% 29.74 in 10.0 mi West 3.5 mph - 0.01 in   Overcast
1:35 AM 51.8 °F - 51.8 °F 100% 29.74 in 10.0 mi West 4.6 mph - 0.01 in   Mostly Cloudy
1:55 AM 50.0 °F - 50.0 °F 100% 29.74 in 10.0 mi West 3.5 mph - 0.01 in   Scattered Clouds
2:15 AM 48.2 °F - 48.2 °F 100% 29.73 in 10.0 mi WSW 4.6 mph - N/A   Scattered Clouds
2:35 AM 46.4 °F - 46.4 °F 100% 29.72 in 2.0 mi Calm Calm - 0.01 in   Scattered Clouds
2:55 AM 46.4 °F 45.2 °F 46.4 °F 100% 29.72 in 1.5 mi WSW 3.5 mph - 0.01 in   Scattered Clouds
3:15 AM 46.4 °F 45.2 °F 46.4 °F 100% 29.71 in 0.5 mi SW 3.5 mph - N/A Fog Fog
3:35 AM 46.4 °F 42.9 °F 46.4 °F 100% 29.72 in 7.0 mi WSW 6.9 mph - 0.01 in   Scattered Clouds
3:55 AM 46.4 °F 44.3 °F 46.4 °F 100% 29.70 in 7.0 mi WSW 4.6 mph - 0.01 in   Clear
4:15 AM 44.6 °F 40.7 °F 44.6 °F 100% 29.70 in 7.0 mi SW 6.9 mph - N/A   Clear
4:35 AM 46.4 °F 41.9 °F 46.4 °F 100% 29.72 in 10.0 mi WSW 9.2 mph - N/A   Clear
4:55 AM 44.6 °F 40.7 °F 44.6 °F 100% 29.71 in 10.0 mi West 6.9 mph - 0.01 in   Clear
5:15 AM 44.6 °F 41.4 °F 44.6 °F 100% 29.71 in 10.0 mi West 5.8 mph - N/A   Clear
5:35 AM 44.6 °F 43.1 °F 44.6 °F 100% 29.71 in 10.0 mi West 3.5 mph - N/A   Clear
5:45 AM 44.6 °F 43.1 °F 44.6 °F 100% 29.72 in 10.0 mi West 3.5 mph - N/A   Clear
6:45 AM 42.8 °F - 42.8 °F 100% 29.72 in 10.0 mi Calm Calm - N/A   Clear
7:55 AM 44.6 °F 42.2 °F 44.6 °F 100% 29.73 in 10.0 mi WSW 4.6 mph - N/A   Clear
8:45 AM 46.4 °F 44.3 °F 46.4 °F 100% 29.72 in 10.0 mi WSW 4.6 mph - N/A   Clear
9:45 AM 48.2 °F - 44.6 °F 87% 29.72 in 10.0 mi West 8.1 mph - N/A   Clear
10:45 AM 53.6 °F - 42.8 °F 67% 29.72 in 10.0 mi West 11.5 mph 18.4 mph N/A   Clear
11:50 AM 55.4 °F - 39.2 °F 54% 29.72 in 10.0 mi WSW 12.7 mph 18.4 mph N/A   Clear
12:45 PM 55.4 °F - 37.4 °F 51% 29.71 in 10.0 mi WSW 11.5 mph 17.3 mph N/A   Clear
1:45 PM 57.2 °F - 37.4 °F 48% 29.69 in 10.0 mi West 8.1 mph - N/A   Clear
2:45 PM 55.4 °F - 37.4 °F 51% 29.68 in 10.0 mi West 5.8 mph 10.4 mph N/A   Clear
3:50 PM 53.6 °F - 39.2 °F 58% 29.68 in 10.0 mi WSW 6.9 mph - N/A   Clear
4:50 PM 51.8 °F - 41.0 °F 67% 29.68 in 10.0 mi WSW 3.5 mph - N/A   Clear
5:53 PM 51.8 °F - 41.0 °F 67% 29.69 in 10.0 mi West 3.5 mph - N/A   Clear
6:50 PM 46.4 °F 44.3 °F 41.0 °F 81% 29.70 in 10.0 mi WSW 4.6 mph - N/A   Clear
8:53 PM 48.2 °F - 42.8 °F 82% 29.72 in 10.0 mi WSW 6.9 mph - N/A   Overcast
9:50 PM 48.2 °F - 42.8 °F 82% 29.71 in 10.0 mi West 8.1 mph - N/A   Overcast
10:15 PM 46.4 °F 41.5 °F 42.8 °F 87% 29.72 in 10.0 mi West 10.4 mph - N/A   Overcast
10:35 PM 46.4 °F 41.1 °F 42.8 °F 87% 29.71 in 10.0 mi West 11.5 mph 16.1 mph N/A   Overcast
10:55 PM 46.4 °F 41.5 °F 42.8 °F 87% 29.71 in 10.0 mi West 10.4 mph - N/A   Overcast
11:15 PM 46.4 °F 41.5 °F 42.8 °F 87% 29.70 in 10.0 mi West 10.4 mph - N/A   Overcast
11:35 PM 46.4 °F 41.9 °F 44.6 °F 93% 29.71 in 10.0 mi WNW 9.2 mph - N/A   Overcast
11:55 PM 46.4 °F 42.9 °F 44.6 °F 93% 29.71 in 10.0 mi WNW 6.9 mph - N/A   Overcast